Regional Weather Roundup
Issued by NWS

Home | Current Version | Previous Version | Graphics & Text | Print | Product List | Glossary On
Versions: 1 2 3 4 5 6 7 8 9 10 11 12 13 14 15 16 17 18 19 20 21 22 23 24 25 26 27 28 29 30 31 32 33 34 35 36 37 38 39 40 41 42 43 44 45 46 47 48 49 50
000
ASUS45 KCYS 010310
RWRWY

WYOMING REGIONAL WEATHER ROUNDUP
NATIONAL WEATHER SERVICE CHEYENNE WY
800 PM MST SAT JAN 31 2015

NOTE:  "FAIR" INDICATES FEW OR NO CLOUDS BELOW 12,000 FEET
WITH NO SIGNIFICANT WEATHER AND/OR OBSTRUCTIONS TO VISIBILITY.

WYZ001-010400-
YELLOWSTONE NATIONAL PARK

CITY           SKY/WX    TMP DP  RH WIND       PRES   REMARKS
LK YELLOWSTONE   N/A     11   6  81 W6        30.05R WCI   1
W YELLOWSTONE  NOT AVBL

$$
WYZ002>013-054>058-071-098>099-010400-
NORTHERN WYOMING

CITY           SKY/WX    TMP DP  RH WIND       PRES   REMARKS
JACKSON        CLEAR     21  16  79 N16       30.04R WCI   7
CODY           CLOUDY    19  18  93 N15       30.11R WCI   5
GREYBULL       FAIR      25  15  66 NW26G33   30.08R WCI   9
WORLAND        MOCLDY    26  18  71 NW18G31   30.08R WCI  13
SHERIDAN       FLURRIES  20  14  77 NW24      30.17R WCI   3
BUFFALO        MOCLDY    19  15  84 N31G41    30.06R WCI   0
GILLETTE       CLOUDY    22  17  81 NW26      30.06R WCI   5
HULETT           N/A    N/A N/A N/A MISG        N/A
NEWCASTLE      FLURRIES  27  21  80 NW24G31   30.00R WCI  12

$$
WYZ014>020-022>026-101>103-010400-
CENTRAL WYOMING

CITY           SKY/WX    TMP DP  RH WIND       PRES   REMARKS
BIG PINEY      FAIR      24  11  57 N18       30.00R WCI  10
PINEDALE       FAIR      18   9  68 W9        30.01R WCI   6
DUBOIS         FAIR      27  10  50 W20G26    29.96S WCI  13
LANDER         CLOUDY    29  21  72 N5        30.04R WCI  24
RIVERTON       MOCLDY    27  20  75 N18       30.02R WCI  14
CASPER         LGT SNOW  25  18  74 N13G18    30.03R WCI  14
DOUGLAS        LGT SNOW  26  21  81 N22G31    30.00R WCI  12

$$
WYZ021-027>030-104>119-010400-
SOUTHERN WYOMING

CITY           SKY/WX    TMP DP  RH WIND       PRES   REMARKS
EVANSTON       FAIR      26  18  71 SW5       30.07R WCI  20
KEMMERER       FAIR      27  18  69 SW3       30.04S
FORT BRIDGER   FAIR      31  19  60 W9        30.08R WCI  23
ROCK SPRINGS   FAIR      32   2  27 NW22G31   29.97R WCI  19
DIXON          FAIR      29  26  85 W5        29.94R WCI  24
RAWLINS        FAIR      26  19  74 N10       29.94R WCI  16
SARATOGA       FAIR      28  21  74 N10       29.90R WCI  19
LARAMIE        MOCLDY    28  17  63 NW16G24   29.86R WCI  16
CHEYENNE       MOCLDY    30  23  75 N24G36    29.84R WCI  16
TORRINGTON     CLOUDY    27  24  89 NE9       29.94R WCI  18
PINE BLUFFS    CLOUDY    30  28  93 N13       29.87R WCI  20

$$


USA.gov is the U.S. government's official web portal to all federal, state and local government web resources and services.